Regional Weather Roundup
Issued by NWS Jackson, KY

Home | Current Version | Previous Version | Graphics & Text | Print | Product List | Glossary On
Versions: 1 2 3 4 5 6 7 8 9 10 11 12 13 14 15 16 17 18 19 20 21 22 23 24 25 26 27 28 29 30 31 32 33 34 35 36 37 38 39 40 41 42 43 44 45 46 47 48 49 50
000
ASUS43 KJKL 240211
RWRJKL

EAST KENTUCKY HOURLY WEATHER ROUNDUP
NATIONAL WEATHER SERVICE JACKSON KY
1000 PM EDT WED APR 23 2014

NOTE: "FAIR" INDICATES FEW OR NO CLOUDS BELOW 12,000 FEET WITH
NO SIGNIFICANT WEATHER AND/OR OBSTRUCTIONS TO VISIBILITY.

* THESE REPORTS ARE NOT UNDER NWS QUALITY CONTROL AND MAY NOT
  REPORT WEATHER SUCH AS PRECIPITATION AND FOG.

KYZ079-080-083-085-087-088-110-112-115-119-120-240300
...EASTERN KENTUCKY...

CITY           SKY/WX    TMP DP  RH WIND       PRES   REMARKS
JACKSON        CLEAR     53  30  41 N6        30.05R
LONDON         CLEAR     54  33  45 N5        30.05R
SOMERSET*      CLEAR     52  32  46 NE6       30.07R
MIDDLESBORO*   CLEAR     51  35  54 CALM      30.04R
HARLAN APT*    CLEAR     54  27  35 CALM      30.04R
BLACK MTN*       N/A     43  25  49 VRB6        N/A
PIKEVILLE APT* CLEAR     52  28  40 NE7       30.04R
BIG SANDY*     CLEAR     52  30  43 NE6       30.05R
MOREHEAD APT*  CLEAR     52  32  46 NW6       30.09R
$$

KYZ035-036-041-042-044-050-067-078-099-240300
...CENTRAL KENTUCKY...

CITY           SKY/WX    TMP DP  RH WIND       PRES   REMARKS
MT STERLING*   CLEAR     50  34  53 NE3       30.08R
FLEMING/MASON* CLEAR     52  32  46 N5        30.09R
DANVILLE*      CLEAR     46  36  66 CALM      30.08R
RICHMOND*      CLEAR     52  32  46 CALM      30.07R
LEXINGTON      CLEAR     52  33  48 CALM      30.07R
FRANKFORT      CLEAR     50  34  54 CALM      30.06R
$$

KYZ091>093-OHZ055-061-077-WVZ005-015-034-035-042-240300
...SOUTHERN OHIO/WEST VIRGINIA...

CITY           SKY/WX    TMP DP  RH WIND       PRES   REMARKS
COVINGTON      PTCLDY    53  32  44 NE6       30.08R
COLUMBUS       PTCLDY    49  31  49 NE7       30.11R
DAYTON         PTCLDY    49  33  54 NE5       30.10R
WILMINGTON     CLEAR     46  32  58 N5        30.09R
HUNTINGTON     CLEAR     52  31  44 NE6       30.06R
CHARLESTON     CLEAR     52  32  46 CALM      30.06R
PINEVILLE*     CLEAR     45  36  69 MISG      30.10R
BECKLEY        CLEAR     47  28  47 N3        30.04R
BLUEFIELD      CLEAR     51  24  34 N5        30.04R
$$

VAZ002-007-008-TNZ017-027-036-066-071-240300
...SOUTHWEST VIRGINIA/EAST TENNESSEE...

CITY           SKY/WX    TMP DP  RH WIND       PRES   REMARKS
WISE*          CLEAR     50  21  32 CALM      30.05S
ABINGDON*      CLEAR     54  23  29 NE5       30.03R
BRISTOL        CLEAR     53  26  35 CALM      30.02R
KNOXVILLE      CLEAR     59  29  31 N6        29.99R
OAK RIDGE      CLEAR     58  30  34 CALM      30.02R
CROSSVILLE     CLEAR     56  28  34 N5        30.03R
NASHVILLE      CLEAR     60  33  36 N6        30.02R
$$

...KEY TO REMARKS...
VSB - VISIBILITY IN MILES
WCI - WIND CHILL INDEX
HX  - HEAT INDEX

$$



USA.gov is the U.S. government's official web portal to all federal, state and local government web resources and services.